Ana Sayfa
METAR-TAF:

METAR-TAF

Havaalanları :

Kerrville Municipal Airport (Louis Schreiner Field)

Kerrville, Teksas, Amerika Birleşik Devletleri

Enlem: 29-58N, Boylam: 099-05W, yükseklik: 493 m

Güncel hava durumu gözlemi

Rapor saat 14:15 UTC de 12 dakika önce yapıldı.
Sakin rüzgar
Sıcaklık 11°C
Nem 94%
Basınç 1013 hPa
Görüş mesafesi: 6.4 km
Açık gökyüzü
Pus

METAR: KERV 091415Z AUTO 00000KT 4SM BR CLR 11/10 A2991 RMK AO2 T01060095

Saat: 08:27 (14:27 UTC)


TAF: eksik

4.000'den fazla havaalanı için hava durumu gözlemleri ve tahminleri (METAR ve TAF raporları).

Kullanılabilir istasyonlar harita üzerinde sarı ve kırmızı noktalarla gösterilir.

İstasyonun adını görmek için fareyi noktanın üzerinde gezdirin.

Sonrasında hava gözlem ve tahminlerini görmek için tıklayın.

Haritayı değiştirmek için: yaklaştırmak için siyah artı işaretli yeşil düğmeye ve uzaklaştırmak için de eksi işaretli düğmeye hızla tıklayın; bitişik haritalar için yeşil okları kullanın.


METAR-TAF: